Simultaneous Nadir Overpasses (SNOs) Predictions

Prediction of SNOs between NOAA-19 and METOP-C Satellite Orbit:

Table of predicted SNOs for the next 14.0 days since TLE Epoch: 1/20/2024
Index Date (NOAA-19) Time (NOAA-19) Lat,Lon (NOAA-19) SZA (NOAA-19 ) Date (METOP-C) Time (METOP-C) Lat,Lon (METOP-C) SZA (METOP-C ) Distance(km) Time Diff (sec)
1 01/24/2024 21:32:37 -80.61, 66.05 79.36 01/24/2024 21:33:37 -80.62, 66.21 79.32 3.08 60
2 01/24/2024 22:23:30 80.63,-126.31 100.68 01/24/2024 22:24:18 80.62,-126.43 100.68 2.13 48
3 01/24/2024 23:14:34 -80.64, 41.06 79.32 01/24/2024 23:14:58 -80.63, 41.06 79.31 0.17 24
4 01/25/2024 00:05:28 80.64,-151.65 100.68 01/25/2024 00:05:39 80.64,-151.58 100.69 1.19 11
5 01/25/2024 00:56:31 -80.66, 16.08 79.28 01/25/2024 00:56:18 -80.67, 16.24 79.26 3.21 13
6 01/25/2024 01:47:24 80.67,-176.27 100.76 01/25/2024 01:46:59 80.67,-176.39 100.74 2.15 25
7 01/25/2024 02:38:28 -80.68, -8.90 79.24 01/25/2024 02:37:39 -80.68, -8.91 79.25 0.21 49



Historial Predications of SNOs between NOAA-19 and METOP-C
